Weather History for Claremore, OK

Change the Weather History Date:

Friday, August 16, 2013

  Actual Average (KTUL) Record (KTUL)
Temperature  
Mean Temperature 70 °F 83 °F  
Max Temperature 78 °F 94 °F 109 °F (1956)
Min Temperature 62 °F 72 °F 57 °F (1992)
Cooling Degree Days 5 18  
Month to date cooling degree days 292  
Year to date cooling degree days 1460  
Since 1 June cooling degree days 1226  
Growing Degree Days 20 (Base 50)    
Moisture  
Dew Point 62 °F    
Average Humidity 77    
Maximum Humidity 100    
Minimum Humidity 54    
Precipitation  
Precipitation 0.07 in 0.09 in 5.12 in (1938)
Month to date precipitation 1.42  
Year to date precipitation 26.00  
Sea Level Pressure  
Sea Level Pressure 30.10 in    
Wind  
Wind Speed 4 mph (East)    
Max Wind Speed 9 mph    
Max Gust Speed -    
Visibility 10 miles    
Events Rain , Thunderstorm    
T = Trace of Precipitation, MM = Missing Value Source: NWS Daily Summary

Daily Weather History Graph

Daily Weather History Graph

Search for Another Location

Airport:

Trip Planner

Search our weather history database for the weather conditions in past years. The results will help you decide how hot, cold, wet, or windy it might be!

Date:

Astronomy

Aug. 16, 2013 Rise Set
Actual Time 6:40 AM CDT 8:10 PM CDT
Civil Twilight 6:13 AM CDT 8:37 PM CDT
Nautical Twilight 5:40 AM CDT 9:10 PM CDT
Astronomical Twilight 5:06 AM CDT 9:44 PM CDT
Moon 4:27 PM CDT (8/16) 1:47 AM CDT (8/16)
Length of Visible Light 14h 24m
Length of Day
13h 29m
Waxing Gibbous, 75% of the Moon is Illuminated
Aug 16
Waxing Gibbous
Aug 20
Full
Aug 28
Last Quarter
Sep 5
New
Sep 12
First Quarter

Hourly Weather History & Observations

Time (CDT) Temp. Dew Point Humidity Pressure Visibility Wind Dir Wind Speed Gust Speed Precip Events Conditions
12:15 AM 68.0 °F 64.4 °F 88% 30.08 in 10.0 mi SSW 4.6 mph - N/A Rain , Thunderstorm Light Thunderstorms and Rain
12:55 AM 68.0 °F 64.4 °F 88% 30.05 in 7.0 mi SSE 4.6 mph - 0.04 in Rain Rain
1:15 AM 66.2 °F 64.4 °F 94% 30.04 in 7.0 mi ESE 5.8 mph - 0.02 in Rain Light Rain
1:35 AM 66.2 °F 64.4 °F 94% 30.04 in 10.0 mi SSE 5.8 mph - 0.02 in Rain Light Rain
1:55 AM 66.2 °F 64.4 °F 94% 30.05 in 10.0 mi Calm Calm - 0.03 in Rain Light Rain
2:15 AM 66.2 °F 64.4 °F 94% 30.06 in 10.0 mi NE 4.6 mph - N/A   Light Drizzle
2:35 AM 66.2 °F 64.4 °F 94% 30.06 in 7.0 mi East 4.6 mph - N/A   Clear
2:55 AM 66.2 °F 64.4 °F 94% 30.06 in 7.0 mi ENE 5.8 mph - N/A   Clear
3:15 AM 66.2 °F 64.4 °F 94% 30.05 in 5.0 mi East 4.6 mph - N/A   Scattered Clouds
3:35 AM 64.4 °F 64.4 °F 100% 30.06 in 7.0 mi ESE 5.8 mph - N/A   Scattered Clouds
3:55 AM 64.4 °F 62.6 °F 94% 30.06 in 7.0 mi SE 3.5 mph - N/A   Scattered Clouds
4:15 AM 64.4 °F 62.6 °F 94% 30.07 in 10.0 mi Calm Calm - N/A   Clear
4:35 AM 64.4 °F 62.6 °F 94% 30.06 in 7.0 mi Calm Calm - N/A   Clear
4:55 AM 64.4 °F 62.6 °F 94% 30.06 in 7.0 mi ENE 3.5 mph - N/A   Clear
5:15 AM 64.4 °F 62.6 °F 94% 30.05 in 10.0 mi SE 5.8 mph - N/A   Scattered Clouds
5:35 AM 64.4 °F 60.8 °F 88% 30.06 in 10.0 mi ESE 3.5 mph - N/A   Clear
5:55 AM 62.6 °F 60.8 °F 94% 30.06 in 10.0 mi SSE 5.8 mph - N/A   Clear
6:15 AM 62.6 °F 60.8 °F 94% 30.06 in 10.0 mi ESE 6.9 mph - N/A   Clear
6:35 AM 62.6 °F 60.8 °F 94% 30.07 in 10.0 mi ESE 3.5 mph - N/A   Clear
6:55 AM 62.6 °F 60.8 °F 94% 30.09 in 10.0 mi Calm Calm - N/A   Clear
7:15 AM 62.6 °F 60.8 °F 94% 30.10 in 10.0 mi Calm Calm - N/A   Clear
7:35 AM 62.6 °F 60.8 °F 94% 30.11 in 10.0 mi Calm Calm - N/A   Clear
7:55 AM 62.6 °F 60.8 °F 94% 30.12 in 10.0 mi Calm Calm - N/A   Clear
8:15 AM 64.4 °F 62.6 °F 94% 30.12 in 10.0 mi ENE 3.5 mph - N/A   Clear
8:35 AM 64.4 °F 60.8 °F 88% 30.12 in 10.0 mi ESE 3.5 mph - N/A   Clear
8:55 AM 68.0 °F 60.8 °F 78% 30.12 in 10.0 mi ESE 6.9 mph - N/A   Clear
9:15 AM 68.0 °F 60.8 °F 78% 30.12 in 10.0 mi ESE 9.2 mph - N/A   Clear
9:35 AM 69.8 °F 60.8 °F 73% 30.12 in 10.0 mi ESE 8.1 mph - N/A   Clear
9:55 AM 69.8 °F 60.8 °F 73% 30.12 in 10.0 mi ESE 8.1 mph - N/A   Clear
10:15 AM 69.8 °F 60.8 °F 73% 30.13 in 10.0 mi ESE 8.1 mph - N/A   Clear
10:35 AM 69.8 °F 60.8 °F 73% 30.13 in 10.0 mi SE 5.8 mph - N/A   Clear
10:55 AM 71.6 °F 60.8 °F 69% 30.13 in 10.0 mi South 4.6 mph - N/A   Clear
11:15 AM 71.6 °F 60.8 °F 69% 30.14 in 10.0 mi Calm Calm - N/A   Clear
11:35 AM 73.4 °F 60.8 °F 65% 30.14 in 10.0 mi Calm Calm - N/A   Clear
11:55 AM 73.4 °F 60.8 °F 65% 30.13 in 10.0 mi WSW 4.6 mph - N/A   Clear
12:15 PM 73.4 °F 60.8 °F 65% 30.13 in 10.0 mi SE 3.5 mph - N/A   Clear
12:35 PM 75.2 °F 62.6 °F 65% 30.13 in 10.0 mi Calm Calm - N/A   Clear
12:55 PM 75.2 °F 60.8 °F 61% 30.13 in 10.0 mi ESE 3.5 mph - N/A   Clear
1:15 PM 77.0 °F 60.8 °F 57% 30.12 in 10.0 mi NE 4.6 mph - N/A   Clear
1:35 PM 77.0 °F 60.8 °F 57% 30.12 in 10.0 mi ESE 4.6 mph - N/A   Scattered Clouds
1:55 PM 77.0 °F 60.8 °F 57% 30.11 in 10.0 mi SSW 3.5 mph - N/A   Scattered Clouds
2:15 PM 77.0 °F 60.8 °F 57% 30.11 in 10.0 mi Calm Calm - N/A   Scattered Clouds
2:35 PM 78.8 °F 60.8 °F 54% 30.11 in 10.0 mi North 3.5 mph - N/A   Scattered Clouds
2:55 PM 77.0 °F 60.8 °F 57% 30.11 in 10.0 mi Calm Calm - N/A   Scattered Clouds
3:15 PM 78.8 °F 62.6 °F 57% 30.11 in 10.0 mi ENE 5.8 mph - N/A   Scattered Clouds
3:35 PM 78.8 °F 60.8 °F 54% 30.10 in 10.0 mi Calm Calm - N/A   Scattered Clouds
3:55 PM 77.0 °F 60.8 °F 57% 30.10 in 10.0 mi East 3.5 mph - N/A   Scattered Clouds
4:15 PM 77.0 °F 60.8 °F 57% 30.10 in 10.0 mi ENE 4.6 mph - N/A   Scattered Clouds
4:35 PM 77.0 °F 62.6 °F 61% 30.10 in 10.0 mi NE 3.5 mph - N/A   Mostly Cloudy
4:55 PM 77.0 °F 60.8 °F 57% 30.10 in 10.0 mi NE 3.5 mph - N/A   Scattered Clouds
5:15 PM 78.8 °F 60.8 °F 54% 30.10 in 10.0 mi East 5.8 mph - N/A   Scattered Clouds
5:35 PM 78.8 °F 60.8 °F 54% 30.10 in 10.0 mi ENE 3.5 mph - N/A   Clear
5:55 PM 78.8 °F 62.6 °F 57% 30.10 in 10.0 mi ENE 8.1 mph - N/A   Scattered Clouds
6:15 PM 77.0 °F 62.6 °F 61% 30.09 in 10.0 mi East 9.2 mph - N/A   Scattered Clouds
6:35 PM 77.0 °F 60.8 °F 57% 30.10 in 10.0 mi ENE 6.9 mph - N/A   Clear
6:55 PM 77.0 °F 60.8 °F 57% 30.10 in 10.0 mi NE 6.9 mph - N/A   Scattered Clouds
7:15 PM 75.2 °F 60.8 °F 61% 30.10 in 10.0 mi ENE 5.8 mph - N/A   Clear
7:35 PM 73.4 °F 62.6 °F 69% 30.11 in 10.0 mi ENE 5.8 mph - N/A   Clear
7:55 PM 71.6 °F 62.6 °F 73% 30.11 in 10.0 mi ENE 4.6 mph - N/A   Clear
8:15 PM 71.6 °F 62.6 °F 73% 30.11 in 10.0 mi ENE 4.6 mph - N/A   Clear
8:35 PM 69.8 °F 62.6 °F 78% 30.11 in 10.0 mi Calm Calm - N/A   Clear
8:55 PM 68.0 °F 62.6 °F 83% 30.12 in 10.0 mi NNE 3.5 mph - N/A   Clear
9:15 PM 68.0 °F 62.6 °F 83% 30.12 in 10.0 mi ENE 4.6 mph - N/A   Clear
9:35 PM 68.0 °F 62.6 °F 83% 30.13 in 10.0 mi ENE 4.6 mph - N/A   Clear
9:55 PM 68.0 °F 62.6 °F 83% 30.14 in 10.0 mi ENE 5.8 mph - N/A   Clear
10:15 PM 68.0 °F 62.6 °F 83% 30.14 in 10.0 mi ENE 5.8 mph - N/A   Clear
10:35 PM 68.0 °F 62.6 °F 83% 30.14 in 10.0 mi ENE 6.9 mph - N/A   Clear
10:55 PM 68.0 °F 60.8 °F 78% 30.15 in 10.0 mi East 8.1 mph - N/A   Clear
11:15 PM 66.2 °F 60.8 °F 83% 30.15 in 10.0 mi East 8.1 mph - N/A   Clear
11:35 PM 66.2 °F 60.8 °F 83% 30.15 in 10.0 mi East 5.8 mph - N/A   Clear
11:55 PM 66.2 °F 60.8 °F 83% 30.16 in 10.0 mi East 5.8 mph - N/A   Clear